Flag for U.S.A. Weather past 2 weeks in Santa Clarita, California, U.S.A.

Now
92 °F

Sunny.


Feels Like: 89 °F
Forecast: 65 / 89 °F
Wind: 5 mph from Southeast

Location: Van Nuys Airport

Current Time: Jul 2, 2015 at 5:12:41 PM

Latest Report: Jul 2, 2015 at 4:51 PM


Visibility: 10 mi

Pressure: 29.87 "Hg

Humidity: 24%

Dew point: 50 °F

Location of Santa ClaritaLocation

Historic Weather in Santa Clarita — Graph

°F

Santa Clarita temperature yesterday

Maximum temperature yesterday: 92 °F (at 2:51 PM)
Minimum temperature yesterday: 73 °F (at 3:51 AM)
Average temperature yesterday: 81 °F

Past Weeks' High & Low Weather Summary

 TemperatureHumidityPressure
High101 °F (Jun 28, 1:51 PM)84% (Jun 18, 2:51 AM)30.01 "Hg (Jun 18, 2:51 AM)
Low62 °F (Jun 18, 4:51 AM)13% (Jun 18, 2:51 PM)29.76 "Hg (Jun 19, 5:51 PM)
Average79 °F44%29.87 "Hg
* Reported Jun 17 3:51 PM — Jul 2 3:51 PM, Santa Clarita, Weather by CustomWeather, © 2015

Note: Actual official high and low records may vary slightly from our data, if they occured in-between our weather recording intervals... More about our weather records

Advertising

Santa Clarita weather history for previous 24 hours

 ConditionsComfort  
Time TempWeatherWind HumidityBarometerVisibility
3:51 PM
Thu, Jul 2
92 °FSunny.8 mph23%29.89 "Hg10 mi
2:51 PM89 °FSunny.13 mph27%29.92 "Hg10 mi
1:51 PM89 °FSunny.9 mph25%29.92 "Hg10 mi
12:51 PM88 °FScattered clouds.10 mph27%29.94 "Hg10 mi
11:51 AM87 °FScattered clouds.12 mph37%29.95 "Hg10 mi
10:51 AM82 °FSunny.No wind40%29.96 "Hg10 mi
9:51 AM79 °FScattered clouds.6 mph48%29.96 "Hg10 mi
8:51 AM78 °FPartly sunny.3 mph46%29.96 "Hg10 mi
7:51 AM77 °FPartly sunny.No wind47%29.96 "Hg10 mi
6:51 AM74 °FPassing clouds.No wind53%29.94 "Hg10 mi
5:51 AM72 °FPassing clouds.No wind61%29.94 "Hg10 mi
4:51 AM73 °FClear.3 mph59%29.93 "Hg10 mi
3:51 AM73 °FClear.No wind57%29.91 "Hg10 mi
2:51 AM74 °FClear.3 mph56%29.92 "Hg10 mi
1:51 AM75 °FPassing clouds.3 mph52%29.92 "Hg10 mi
12:51 AM75 °FClear.6 mph50%29.92 "Hg10 mi
11:51 PM
Wed, Jul 1
76 °FClear.No wind43%29.91 "Hg10 mi
10:51 PM77 °FClear.No wind42%29.92 "Hg10 mi
9:51 PM76 °FClear.6 mph43%29.92 "Hg10 mi
8:51 PM76 °FSunny.6 mph43%29.90 "Hg10 mi
7:51 PM78 °FPassing clouds.9 mph42%29.89 "Hg10 mi
6:51 PM82 °FSunny.9 mph34%29.85 "Hg10 mi
5:51 PM84 °FSunny.9 mph32%29.84 "Hg10 mi
Weather by CustomWeather, © 2015

See weather overviewHow to use our weather pages